This demonstration page uses our WeatherBlox Daily Observations layout. Learn more.

Left ArrowRight Arrow

39.51506, -84.39828

Hourly Observations for August 8, 2021

Temp ( °F °C ) Dew Point ( °F °C ) Humidity (%) Winds ( mph kmh ) Pressure ( in mb ) Visibility ( mi km ) Precip ( " mm )
12:15 am 00:15 Clear with Mist and Fog 68 20 N/A N/A N N/A 30.02 1017 3 5 N/A
12:35 am 00:35 Hazy 68 20 N/A N/A N N/A 30.01 1016 5 8 N/A
12:55 am 00:55 Mostly Cloudy with Mist and Fog 68 20 N/A N/A N N/A 30.01 1016 1 1 N/A
1:15 am 01:15 Mostly Cloudy with Mist and Fog 66 19 N/A N/A N N/A 30.02 1016 2 3 N/A
1:35 am 01:35 Mostly Cloudy with Mist and Fog 66 19 N/A N/A N N/A 30.01 1016 2 2 N/A
1:55 am 01:55 Mostly Cloudy with Mist and Fog 66 19 N/A N/A N N/A 30.01 1016 1 2 N/A
2:15 am 02:15 Mostly Cloudy with Fog 66 19 N/A N/A N N/A 30.00 1016 1 1 N/A
2:35 am 02:35 Mostly Cloudy with Fog 66 19 N/A N/A N N/A 30.00 1016 1 1 N/A
2:55 am 02:55 Mostly Cloudy with Mist and Fog 66 19 N/A N/A N N/A 30.00 1016 2 2 N/A
3:15 am 03:15 Mostly Cloudy with Mist and Fog 64 18 N/A N/A N N/A 30.00 1016 1 2 N/A
3:35 am 03:35 Mostly Cloudy with Fog 64 18 N/A N/A N N/A 30.00 1016 1 1 N/A
3:55 am 03:55 Mostly Cloudy with Mist and Fog 64 18 N/A N/A N N/A 30.00 1016 2 2 N/A
4:15 am 04:15 Mostly Cloudy with Mist and Fog 64 18 N/A N/A N N/A 30.01 1016 1 2 N/A
4:35 am 04:35 Mostly Cloudy with Fog 64 18 N/A N/A N N/A 30.00 1016 0 0 N/A
4:55 am 04:55 Mostly Cloudy with Fog 64 18 N/A N/A NNW 3 6 30.01 1016 1 1 N/A
5:15 am 05:15 Clear with Mist and Fog 63 17 N/A N/A N N/A 30.02 1017 3 5 N/A
5:35 am 05:35 Clear with Mist and Fog 64 18 N/A N/A N N/A 30.03 1017 2 3 N/A
5:55 am 05:55 Clear with Mist and Fog 64 18 N/A N/A N N/A 30.03 1017 3 5 N/A
6:15 am 06:15 Clear with Mist and Fog 63 17 N/A N/A N N/A 30.03 1017 3 4 N/A
6:35 am 06:35 Mostly Cloudy with Mist and Fog 63 17 N/A N/A N N/A 30.03 1017 1 2 N/A
6:55 am 06:55 Mostly Cloudy with Mist and Fog 63 17 N/A N/A N N/A 30.04 1017 1 2 N/A
7:15 am 07:15 Sunny with Mist and Fog 63 17 N/A N/A N N/A 30.05 1018 2 3 N/A
7:35 am 07:35 Sunny with Mist and Fog 64 18 N/A N/A NW 3 6 30.05 1018 2 3 N/A
7:55 am 07:55 Sunny with Mist and Fog 66 19 N/A N/A N N/A 30.05 1018 3 5 N/A
8:15 am 08:15 Sunny with Mist and Fog 68 20 N/A N/A N N/A 30.05 1018 4 6 N/A
8:35 am 08:35 Hazy 68 20 N/A N/A N N/A 30.05 1018 5 8 N/A
8:55 am 08:55 Sunny with Mist and Fog 71 21.4 70 21 98 98 N N/A 30.05 1018 7 11 N/A
9:15 am 09:15 Sunny 73 22.6 70 21.1 91 91 WSW 5 7 30.05 1018 7 11 N/A
9:35 am 09:35 Sunny 75 23.7 70 21.3 86 86 SW 6 9 30.05 1017 10 16 N/A
9:55 am 09:55 Sunny 76 24.6 70 21.3 82 82 SW 6 9 30.04 1017 10 16 N/A
10:15 am 10:15 Sunny 78 25.3 71 21.4 79 79 S 5 7 30.04 1017 7 11 N/A
10:35 am 10:35 Sunny 79 26.3 71 21.4 75 75 SW 5 7 30.04 1017 10 16 N/A
10:55 am 10:55 Sunny 81 27.3 71 21.4 70 70 SW 7 11 30.04 1017 10 16 N/A
11:15 am 11:15 Sunny 82 28 71 21.6 68 68 SW 7 11 30.04 1017 10 16 N/A
11:35 am 11:35 Sunny 83 28.4 71 21.7 67 67 W 5 7 30.04 1017 10 16 N/A
11:55 am 11:55 Partly Cloudy 85 29.2 71 21.8 64 64 SW 8 13 30.04 1017 10 16 N/A
12:15 pm 12:15 Partly Cloudy 85 29.2 70 21 61 61 W 9 15 30.03 1017 10 16 N/A
12:35 pm 12:35 Mostly Cloudy 85 29.5 70 21.1 61 61 SW 8 13 30.04 1017 10 16 N/A
12:55 pm 12:55 Partly Cloudy 86 30.2 70 21 58 58 W 9 15 30.03 1017 10 16 N/A
1:15 pm 13:15 Partly Cloudy 87 30.8 69 20.3 54 54 SSW 7 11 30.03 1017 10 16 N/A
1:35 pm 13:35 Partly Cloudy 88 31.2 69 20.5 53 53 SSW 9 15 30.03 1017 10 16 N/A
1:55 pm 13:55 Partly Cloudy 86 30.1 68 20.2 55 55 WSW 10 17 30.02 1017 10 16 N/A
2:15 pm 14:15 Partly Cloudy 89 31.7 67 19.6 49 49 S 7 11 30.02 1017 10 16 N/A
2:35 pm 14:35 Sunny 90 32.1 67 19.6 48 48 SW 10 17 30.01 1016 10 16 N/A
2:55 pm 14:55 Partly Cloudy 88 31.3 67 19.4 49 49 WSW 8 13 30.01 1016 10 16 N/A
3:15 pm 15:15 Partly Cloudy 90 32.2 67 19.5 47 47 WSW 9 15 30.00 1016 10 16 N/A
3:35 pm 15:35 Sunny 90 32.1 67 19.5 47 47 WSW 9 15 30.00 1016 10 16 N/A
3:55 pm 15:55 Partly Cloudy 89 31.5 67 19.4 49 49 SSW 8 13 29.99 1016 10 16 N/A
4:15 pm 16:15 Sunny 90 32.3 67 19.6 47 47 SW 8 13 29.99 1015 10 16 N/A
4:35 pm 16:35 Partly Cloudy 90 32.2 68 20 48 48 WSW 9 15 29.98 1015 10 16 N/A
4:55 pm 16:55 Sunny 90 32 68 20.1 49 49 WSW 10 17 29.98 1015 10 16 N/A
5:15 pm 17:15 Sunny 89 31.5 68 19.8 50 50 WSW 8 13 29.98 1015 10 16 N/A
5:35 pm 17:35 Sunny 88 30.9 67 19.3 50 50 SSW 8 13 29.97 1015 10 16 N/A
5:55 pm 17:55 Partly Cloudy 90 32 69 20.3 50 50 SW 8 13 29.96 1014 10 16 N/A
6:15 pm 18:15 Mostly Cloudy 90 32.3 67 19.4 46 46 S 8 13 29.95 1014 10 16 N/A
6:35 pm 18:35 Partly Cloudy 89 31.6 69 20.3 51 51 SSE 9 15 29.95 1014 10 16 N/A
6:55 pm 18:55 Cloudy 87 30.6 69 20.8 56 56 SSE 8 13 29.95 1014 10 16 N/A
7:15 pm 19:15 Cloudy 87 30.6 69 20.4 54 54 S 8 13 29.95 1014 10 16 N/A
7:35 pm 19:35 Partly Cloudy 87 30.3 69 20.5 56 56 S 9 15 29.95 1014 10 16 N/A
7:55 pm 19:55 Partly Cloudy 86 29.8 69 20.6 58 58 S 12 19 29.95 1014 10 16 N/A
8:15 pm 20:15 Mostly Cloudy 85 29.6 68 20.2 57 57 S 13 20 29.96 1015 10 16 N/A
8:35 pm 20:35 Mostly Cloudy 85 29.2 68 20 58 58 S 13 20 29.97 1015 10 16 N/A
8:55 pm 20:55 Partly Cloudy 83 28.4 69 20.3 62 62 SSW 8 13 29.99 1015 10 16 N/A
9:15 pm 21:15 Clear 83 28.1 69 20.3 63 63 SSW 9 15 29.99 1015 10 16 N/A
9:35 pm 21:35 Clear 80 26.4 70 20.9 72 72 SW 7 11 30.00 1016 10 16 N/A
9:55 pm 21:55 Clear 79 26 70 21 74 74 WSW 6 9 30.01 1016 10 16 N/A
10:15 pm 22:15 Clear 77 24.8 70 21.3 81 81 WSW 3 6 30.01 1016 10 16 N/A
10:35 pm 22:35 Clear 74 23.4 71 21.8 91 91 N N/A 30.03 1017 10 16 N/A
10:55 pm 22:55 Clear 73 22.9 72 22 95 95 N N/A 30.03 1017 10 16 N/A
11:15 pm 23:15 Clear 73 22.6 72 22 96 96 N N/A 30.03 1017 10 16 N/A
11:35 pm 23:35 Clear 72 22.4 72 22 98 98 SW 3 6 30.03 1017 10 16 N/A
11:55 pm 23:55 Clear 71 21.9 71 21.6 98 98 SW 3 6 30.03 1017 10 16 N/A

Powered by AerisWeather